User: anonymous
Location: Oshawa
(43.9000°N, 78.8670°W)
Time: 05:41:24
(UTC-04:00)
Language:

PAYLOAD A - Orbit

View from above orbital plane
View from above orbital plane
View from above satellite
View from above satellite

Ground track
Ground track

The orbit data is extracted from the following two-line orbital elements,

1 27840U 03031A   14260.84633279  .00000068  00000-0  34786-4 0  6390
2 27840 098.2306 285.7163 0097280 262.9882 220.4765 14.38723752589039
Epoch (UTC): 17 September 2014 20:18:43
Eccentricity: 0.0097280
inclination: 98.2306°
perigee height: 693 km
apogee height: 832 km
right ascension of ascending node: 285.7163°
argument of perigee: 262.9882°
revolutions per day: 14.38723752
mean anomaly at epoch: 220.4765°
orbit number at epoch: 58903

The dashed part of the orbit path shows where the satellite is in the earth's shadow,  

DLR